This is the latest recevied weather packets stored in our database for station/object KO6MEX-13. If no packets are shown the sender has not sent any weather packets the latest 10 day(s).
| Time | Temp. | Humidity | Pressure | Rain* | Wind** | Luminosity | Snow |
|---|---|---|---|---|---|---|---|
| 1777657663 | 15.56° C | 78% | 1018.9 hPa | 0 mm | - | 272 W/m² | - |
| 1777657361 | 15° C | 79% | 1018.8 hPa | 0 mm | - | 212 W/m² | - |
| 1777657059 | 15° C | 79% | 1019.1 hPa | 0 mm | - | 189 W/m² | - |
| 1777656756 | 15° C | 80% | 1019.1 hPa | 0 mm | - | 185 W/m² | - |
| 1777656452 | 15° C | 81% | 1019.2 hPa | 0 mm | - | 169 W/m² | - |
| 1777656147 | 15° C | 79% | 1019.1 hPa | 0 mm | - | 163 W/m² | - |
| 1777655843 | 14.44° C | 81% | 1019.2 hPa | 0 mm | - | 148 W/m² | - |
| 1777655540 | 14.44° C | 81% | 1019.1 hPa | 0 mm | - | 140 W/m² | - |
| 1777655237 | 15° C | 80% | 1019.3 hPa | 0 mm | - | 134 W/m² | - |
| 1777654934 | 15° C | 80% | 1019.1 hPa | 0 mm | - | 132 W/m² | - |
| 1777654631 | 14.44° C | 82% | 1019.2 hPa | 0 mm | - | 130 W/m² | - |
| 1777654328 | 14.44° C | 81% | 1019.1 hPa | 0 mm | - | 123 W/m² | - |
| 1777654026 | 14.44° C | 82% | 1019.3 hPa | 0 mm | - | 120 W/m² | - |
| 1777653723 | 15° C | 80% | 1019.3 hPa | 0 mm | - | 114 W/m² | - |
| 1777653419 | 15° C | 80% | 1019.1 hPa | 0 mm | - | 108 W/m² | - |
| 1777653116 | 14.44° C | 80% | 1019.2 hPa | 0 mm | - | 106 W/m² | - |
| 1777652812 | 14.44° C | 82% | 1019.3 hPa | 0 mm | - | 98 W/m² | - |
| 1777652509 | 13.89° C | 84% | 1019.2 hPa | 0 mm | - | 96 W/m² | - |
| 1777652206 | 13.89° C | 84% | 1019.1 hPa | 0 mm | - | 92 W/m² | - |
| 1777651904 | 13.33° C | 84% | 1019.3 hPa | 0 mm | - | 88 W/m² | - |
| 1777651599 | 13.89° C | 84% | 1019 hPa | 0 mm | - | 87 W/m² | - |
| 1777651297 | 13.89° C | 84% | 1019.1 hPa | 0 mm | - | 78 W/m² | - |
| 1777650994 | 13.33° C | 84% | 1019.1 hPa | 0 mm | - | 73 W/m² | - |
| 1777650691 | 13.33° C | 84% | 1018.9 hPa | 0 mm | - | 72 W/m² | - |
| 1777650388 | 13.33° C | 85% | 1018.9 hPa | 0 mm | - | 70 W/m² | - |
* Rain latest hour (hover to see other rain measurements)
** Current wind speed in m/s (hover to see current wind gust speed)